Theta_e
335 334 334 333 332 332 332 330 329 329 329 328 328 329 327 326 329 329 329 328 330 326 320 321 322 315 323 330 333 337 338 339 340 337 331 331 331 332 333 333 333 332 332
335 334 334 333 333 332 332 332 330 329 329 329 328 328 328 327 327 329 327 327 329 325 315 317 322 315 323 331 332 335 338 340 340 336 331 333 333 332 332 333 332 328 327
335 334 334 334 330 330 328 328 329 330 330 329 327 328 328 328 328 327 325 327 330 327 312 313 322 317 325 332 332 334 337 340 341 332 334 334 332 330 332 331 329 327 322
335 335 334 331 329 329 329 328 328 330 330 327 327 327 329 328 329 327 328 328 327 330 331 318 321 320 328 333 334 336 336 338 339 333 335 333 329 328 331 329 328 321 311
335 334 336 332 329 329 329 328 326 327 329 329 327 329 329 329 328 327 327 327 327 329 329 332 323 320 330 332 334 338 336 338 339 336 334 331 327 328 326 326 321 311 308
333 334 335 330 329 329 328 326 326 327 328 327 328 328 328 329 327 327 327 326 328 329 330 331 329 320 328 333 333 336 338 337 338 337 331 330 326 324 327 319 309 307 308
333 334 332 330 329 329 328 327 325 325 325 327 328 327 326 328 328 327 325 328 328 328 331 332 334 333 329 334 332 328 337 340 339 334 331 329 326 328 321 310 307 311 309
334 333 333 329 328 327 327 328 325 324 323 326 326 328 328 327 327 327 327 326 330 329 331 332 331 336 331 333 332 330 337 339 337 332 330 328 328 321 308 306 311 311 310
333 333 331 330 328 327 328 326 325 326 325 324 324 327 328 326 326 326 326 330 330 331 331 332 335 334 333 335 333 333 338 333 333 330 328 325 323 308 307 313 313 311 310
331 330 328 328 327 328 326 324 325 324 325 326 324 324 327 327 327 328 329 327 329 330 330 330 332 333 333 333 334 331 333 331 330 330 328 325 311 317 316 315 312 311 308
329 329 327 328 328 326 324 323 324 324 324 324 325 326 327 329 326 328 328 330 330 330 331 331 331 332 333 334 332 331 333 329 328 328 325 317 318 322 316 309 311 310 308
329 328 329 328 328 328 327 327 328 325 325 326 327 328 327 328 327 326 328 330 330 331 331 331 332 332 334 334 332 330 331 329 328 324 320 321 323 322 310 309 310 309 308
328 328 328 328 328 325 328 328 328 328 326 324 326 328 329 329 330 330 328 329 332 331 332 333 334 335 337 334 331 332 330 327 325 320 323 323 323 310 308 310 310 309 310
327 326 328 327 326 327 328 328 328 328 328 327 327 329 328 329 330 328 329 331 330 331 332 332 333 331 332 333 332 331 327 326 322 323 324 323 311 313 311 312 310 314 311
328 328 328 329 327 329 329 329 327 328 327 326 329 328 330 328 330 329 330 331 331 332 330 330 327 331 331 327 325 325 324 323 323 324 323 314 315 317 311 312 314 312 309
327 327 328 328 329 329 329 327 324 325 323 327 329 329 330 331 329 329 329 331 330 330 329 328 327 326 327 326 325 323 323 324 324 324 320 315 318 318 316 320 319 314 312
327 327 327 327 328 329 330 329 326 328 329 326 328 324 331 331 328 330 330 330 330 327 327 326 325 326 325 323 324 324 324 324 323 321 316 318 315 312 312 313 313 313 312
326 326 327 327 328 328 328 329 329 328 328 328 332 331 331 331 328 330 328 329 329 327 326 325 324 324 324 324 325 324 325 324 324 323 318 317 314 313 311 311 312 312 313
326 326 327 327 328 328 329 330 329 328 329 329 332 331 331 331 330 329 328 326 328 328 325 326 325 324 325 325 326 324 324 325 322 318 316 315 315 313 311 311 311 312 314
326 327 328 328 328 329 330 330 328 330 329 329 330 332 331 331 329 329 328 326 326 326 326 326 325 324 325 325 325 324 323 320 316 317 317 315 312 311 310 311 312 314 316
328 327 328 328 329 330 329 330 331 329 328 329 331 331 330 329 329 328 328 326 326 326 325 326 325 325 325 325 323 321 317 314 314 313 312 311 311 310 310 312 316 318 313
328 327 328 328 329 329 324 327 331 330 329 329 329 329 329 329 329 329 328 327 328 326 326 326 325 323 325 323 319 315 313 314 318 314 309 311 311 315 316 318 315 310 303
328 328 328 329 330 323 323 324 328 330 330 330 329 328 328 328 328 329 328 329 327 327 326 325 324 324 324 322 321 317 315 316 320 321 321 317 314 312 315 312 311 304 297
329 330 330 328 328 323 323 325 326 330 329 329 329 328 328 329 329 329 329 329 327 326 325 323 323 322 321 321 318 315 319 322 321 321 319 317 315 312 313 312 307 298 297
329 327 328 331 330 323 326 326 328 331 330 331 329 328 328 328 328 328 328 328 327 326 324 324 324 321 320 322 324 320 325 324 322 322 320 318 316 313 312 309 304 298 297
331 330 329 330 328 325 326 327 328 330 330 329 328 329 327 328 327 326 327 326 327 327 325 325 324 325 325 325 323 323 324 323 323 323 323 320 317 313 312 311 310 299 297
Wind_Speed
13 13 15 17 16 14 12 12 13 15 14 13 13 16 22 21 10 14 17 25 18 20 23 20 18 22 22 20 20 22 23 23 29 27 29 27 23 24 22 20 20 16 14
13 13 16 19 17 16 15 15 15 13 13 12 14 14 15 18 19 14 14 18 14 17 20 20 18 20 20 19 20 22 23 24 30 30 30 28 26 25 23 22 18 17 13
13 14 15 24 22 20 18 20 19 16 13 13 14 14 14 16 20 23 20 17 13 12 15 18 18 18 17 17 19 22 24 23 25 32 30 28 27 25 24 21 20 16 14
14 16 18 22 21 20 20 19 18 17 13 13 14 16 13 16 15 17 15 13 14 14 12 14 17 16 15 14 18 22 25 23 24 34 32 31 29 25 22 20 18 16 11
13 17 19 20 19 18 19 19 20 18 14 15 15 13 11 15 17 13 14 15 15 15 13 12 13 15 13 14 17 18 23 24 24 33 35 31 29 25 19 20 17 13 13
14 17 18 21 18 17 18 19 17 15 15 14 13 12 11 15 14 16 14 15 13 14 13 14 10 16 15 15 15 20 22 25 25 32 31 30 31 26 23 19 17 16 13
13 16 19 17 17 17 17 15 15 15 15 14 11 12 13 14 13 15 15 13 16 15 14 15 10 12 16 17 17 19 25 29 33 32 34 30 28 23 22 20 20 13 10
13 16 17 16 16 14 12 12 14 17 17 16 14 10 8 10 15 15 16 17 15 15 15 16 15 13 18 17 17 18 27 43 34 34 30 26 24 23 23 25 21 16 12
11 13 14 13 11 9 13 13 14 15 15 16 18 11 7 9 15 17 17 15 16 17 18 17 16 20 19 15 15 21 37 28 37 37 37 31 22 25 25 24 21 14 8
10 11 13 9 6 8 10 9 10 12 14 15 16 19 11 7 13 13 15 20 18 16 16 19 20 18 20 20 24 26 27 38 40 41 41 35 31 26 28 23 17 12 9
11 6 7 4 5 7 5 5 3 7 11 12 15 14 12 10 16 12 14 15 17 15 15 16 16 18 21 25 29 28 33 28 33 41 44 35 32 24 19 16 14 13 10
6 7 4 4 5 3 3 3 4 3 5 8 11 11 11 11 11 13 12 15 14 13 13 14 15 18 25 31 27 28 34 34 44 46 37 36 33 20 15 16 15 12 13
6 5 6 5 4 3 3 4 4 4 4 5 7 10 9 8 8 7 8 12 10 11 8 12 18 23 27 30 24 39 40 47 46 43 45 37 27 25 20 17 14 13 12
6 6 5 3 2 1 2 4 3 4 4 5 4 8 8 7 6 7 8 13 12 9 11 17 21 19 20 25 39 45 53 48 45 44 33 33 23 24 20 16 13 13 12
4 6 4 2 2 1 2 3 2 3 4 3 3 7 7 8 1 7 10 14 13 13 15 18 28 28 28 45 46 48 43 38 40 32 28 26 23 19 24 19 16 14 14
7 6 3 1 1 1 3 5 3 3 4 4 3 6 5 4 6 6 10 11 12 18 21 27 26 40 45 44 42 44 43 38 33 30 26 23 16 15 16 19 17 16 12
6 4 3 2 2 1 2 3 4 4 5 8 8 7 5 4 6 8 9 10 14 21 32 32 35 40 38 44 39 35 35 32 30 29 27 21 18 17 17 13 10 11 9
6 4 3 3 2 3 3 4 3 9 7 8 7 7 7 6 6 9 14 16 18 23 35 45 39 37 43 36 35 34 33 30 28 25 24 19 22 19 14 11 10 9 8
6 5 4 3 2 1 2 2 1 7 9 6 7 8 10 9 13 14 18 14 19 31 43 49 38 40 36 33 28 31 27 25 24 23 23 23 19 15 13 12 11 8 7
7 6 5 4 3 3 6 5 6 10 5 5 7 11 12 11 16 18 18 23 25 44 46 46 41 39 38 33 31 32 28 24 24 21 20 20 17 15 14 11 9 8 7
7 8 7 7 5 5 4 8 6 8 10 8 9 10 14 13 16 23 27 29 28 45 45 44 40 41 36 32 32 29 29 25 19 19 19 17 16 15 13 11 9 8 6
9 11 9 7 7 4 7 9 11 8 10 10 10 10 13 15 17 20 22 28 35 51 47 44 43 40 35 33 27 29 28 25 23 14 18 15 14 13 12 11 10 6 4
10 9 8 8 6 9 5 5 10 9 10 11 10 13 14 15 20 21 24 26 29 42 44 46 44 40 39 32 29 28 25 19 19 20 18 15 13 12 11 12 8 4 3
12 12 9 9 9 7 3 4 10 6 8 12 16 16 18 17 25 24 25 29 29 37 40 44 39 39 35 28 24 23 23 19 17 17 17 16 13 9 11 10 7 6 3
7 8 11 10 9 8 4 7 11 7 14 14 15 14 16 20 22 23 25 28 29 33 38 27 26 32 27 21 20 21 17 16 17 16 15 12 13 11 9 11 8 5 3
4 4 9 12 10 10 8 7 15 8 14 15 15 17 18 25 23 23 24 26 24 31 33 28 28 22 20 21 22 18 17 17 17 15 16 13 16 13 6 6 7 8 7
Wind_Direction
252 260 266 255 252 260 254 257 251 255 263 261 250 244 237 224 230 214 223 239 249 263 243 236 234 223 227 227 218 218 217 217 205 209 194 189 183 192 190 185 181 184 190
249 259 267 269 260 256 251 256 256 260 253 261 258 241 239 220 216 231 236 242 258 270 239 234 232 226 227 228 222 217 218 215 217 195 199 191 189 189 184 186 186 192 185
257 264 263 261 267 259 262 258 248 250 250 252 252 249 232 218 220 225 235 228 242 272 249 235 230 223 228 230 226 217 216 217 216 194 193 191 187 186 186 188 190 180 191
260 260 267 274 274 266 259 257 251 245 248 231 247 241 224 226 220 230 218 226 227 249 247 242 233 219 226 231 224 217 214 217 220 193 188 189 183 179 185 183 177 187 174
261 271 271 276 274 268 261 257 257 248 229 241 241 232 222 223 223 215 226 222 224 225 238 238 238 217 223 223 217 213 215 214 220 199 190 184 179 179 179 187 177 172 168
267 272 270 278 273 267 262 257 251 239 233 226 236 243 215 222 207 223 219 227 225 222 218 228 238 218 225 213 207 210 212 211 209 191 185 181 176 176 180 171 164 159 153
273 268 270 273 266 260 263 255 244 229 231 225 224 231 221 216 216 215 215 222 222 214 211 214 207 211 231 213 211 215 207 205 205 191 187 177 175 173 168 163 154 145 134
268 268 269 271 268 264 257 239 237 235 234 225 220 209 205 216 214 218 219 219 215 212 218 205 208 215 226 218 211 207 189 199 184 174 171 173 175 170 160 148 142 139 172
271 264 267 264 261 251 242 241 240 232 233 227 220 193 187 211 194 205 214 216 219 209 205 207 216 216 214 209 186 167 178 184 191 184 168 173 169 162 151 151 131 127 164
255 258 270 252 238 231 248 257 251 238 223 219 214 207 207 225 181 186 211 212 218 213 210 204 212 209 204 197 180 179 183 181 176 172 170 174 164 159 152 133 129 165 162
259 239 262 216 235 255 253 246 256 232 205 207 197 193 216 225 199 230 190 207 210 210 209 210 212 197 190 184 173 178 184 191 188 188 175 162 157 150 131 137 155 164 162
244 204 210 216 238 244 203 212 211 229 200 197 194 202 207 210 220 224 199 194 191 197 199 203 195 189 186 181 180 180 180 183 170 162 155 154 159 159 151 169 160 160 171
211 169 189 197 219 215 176 215 211 211 230 211 207 206 206 210 241 226 207 185 174 172 163 175 175 178 182 175 183 176 173 166 161 151 147 145 147 153 173 164 154 160 145
160 206 174 205 178 174 189 229 221 231 232 244 217 198 198 214 238 224 210 176 162 143 151 139 174 178 178 183 177 178 162 161 151 151 150 157 151 161 155 150 149 151 150
189 160 176 181 121 140 266 276 241 221 216 223 225 216 216 218 262 246 209 171 170 150 118 149 134 167 166 155 143 141 143 146 150 157 156 156 163 166 165 162 147 151 153
158 169 169 187 225 209 266 265 225 221 239 242 194 211 207 232 268 206 180 180 169 148 131 149 151 153 153 148 147 142 143 150 158 154 147 153 156 164 172 180 181 182 174
171 173 194 206 249 237 265 246 230 180 215 213 221 202 209 218 188 151 152 162 164 159 143 142 151 139 137 135 139 141 146 141 148 146 153 157 153 159 170 176 183 172 189
169 191 199 212 231 268 294 275 240 183 192 203 205 210 201 166 154 154 138 130 144 164 146 142 144 145 145 145 150 142 145 148 139 147 148 156 173 159 161 176 184 189 197
171 185 181 183 181 210 36 111 140 167 175 183 184 187 162 151 138 135 147 133 146 158 152 135 146 153 148 141 144 147 138 141 142 147 157 161 167 171 178 187 189 193 215
172 173 162 159 118 95 86 83 93 131 151 142 134 127 142 140 144 145 139 147 138 142 146 143 152 151 145 152 136 136 139 141 141 152 161 170 171 173 182 188 198 214 237
168 163 154 136 134 102 109 89 76 112 144 138 129 141 149 143 149 146 141 144 153 152 150 151 140 143 144 142 144 147 138 141 147 154 154 163 174 183 187 198 210 198 187
153 154 151 150 106 144 118 107 95 102 117 129 134 136 141 135 146 155 148 149 163 160 157 161 155 152 151 145 143 147 150 142 139 163 159 160 183 183 183 193 178 183 203
151 158 157 159 154 165 127 113 113 91 104 116 132 131 133 143 150 150 152 155 155 167 165 157 156 157 152 146 161 159 158 152 148 150 158 152 144 159 190 175 184 190 194
167 164 164 194 181 177 175 129 128 106 118 116 125 124 114 116 142 146 151 157 158 165 166 157 154 159 157 153 153 156 138 156 152 150 160 148 163 164 186 186 196 195 201
154 169 176 168 164 164 157 123 127 122 124 116 124 128 120 125 135 144 146 158 159 167 162 163 156 161 162 164 152 149 150 153 154 163 157 162 168 179 196 195 201 210 235
135 129 158 149 160 153 148 135 130 149 128 127 123 128 129 128 126 133 137 142 147 160 160 164 163 159 169 168 153 163 165 159 165 170 183 176 180 170 177 262 237 227 245